| time (UTC) | temp C | wind direction | speed KPH | gust KPH | rain 1hr cm | rain 24hr cm | rain mn cm | humidity % | barometer mb |
| 20260502161837 | 18 | 341 | 0.0 | 0.0 | 0.00 | 0.00 | 0.00 | 66 | 1019.9 |
| 20260502161333 | 18 | 148 | 0.0 | 0.0 | 0.00 | 0.00 | 0.00 | 67 | 1019.9 |
| 20260502160831 | 18 | 320 | 0.0 | 0.0 | 0.00 | 0.00 | 0.00 | 66 | 1019.8 |
| 20260502160329 | 18 | 321 | 0.0 | 0.0 | 0.00 | 0.00 | 0.00 | 69 | 1019.9 |
| 20260502152259 | 17 | 339 | 0.0 | 0.0 | 0.00 | 0.00 | 0.00 | 78 | 1019.4 |
| 20260502151756 | 17 | 329 | 0.0 | 0.0 | 0.00 | 0.00 | 0.00 | 78 | 1019.8 |
| 20260502151253 | 17 | 341 | 0.0 | 0.0 | 0.00 | 0.00 | 0.00 | 80 | 1019.7 |
| 20260502150751 | 17 | 339 | 0.0 | 0.0 | 0.00 | 0.00 | 0.00 | 79 | 1019.7 |
| 20260502150247 | 16 | 350 | 0.0 | 0.0 | 0.00 | 0.00 | 0.00 | 79 | 1019.8 |
| 20260502130636 | 11 | 337 | 0.0 | 0.0 | 0.00 | 0.00 | 0.00 | 95 | 1018.7 |
| 20260502130134 | 11 | 343 | 0.0 | 0.0 | 0.00 | 0.00 | 0.00 | 95 | 1018.8 |
| 20260502123620 | 10 | 338 | 0.0 | 0.0 | 0.00 | 0.00 | 0.00 | 95 | 1018.1 |
| 20260502123115 | 10 | 346 | 0.0 | 0.0 | 0.00 | 0.00 | 0.00 | 95 | 1017.8 |
| 20260502122612 | 10 | 350 | 0.0 | 0.0 | 0.00 | 0.00 | 0.00 | 95 | 1017.8 |
| 20260502122109 | 10 | 352 | 0.0 | 0.0 | 0.00 | 0.00 | 0.00 | 95 | 1017.9 |
| 20260502121607 | 10 | 353 | 0.0 | 0.0 | 0.00 | 0.00 | 0.00 | 95 | 1017.7 |
| 20260502121104 | 10 | 349 | 0.0 | 0.0 | 0.00 | 0.00 | 0.00 | 95 | 1017.5 |
| 20260502120600 | 10 | 332 | 0.0 | 0.0 | 0.00 | 0.00 | 0.00 | 95 | 1017.7 |
| 20260502115556 | 10 | 354 | 0.0 | 0.0 | 0.00 | 0.00 | 0.00 | 95 | 1017.4 |
| 20260502115051 | 10 | 339 | 0.0 | 0.0 | 0.00 | 0.00 | 0.00 | 95 | 1017.5 |
| 20260502114547 | 10 | 339 | 0.0 | 0.0 | 0.00 | 0.00 | 0.00 | 95 | 1017.4 |
| 20260502114044 | 10 | 339 | 0.0 | 0.0 | 0.00 | 0.00 | 0.00 | 95 | 1017.4 |
| 20260502113542 | 10 | 339 | 0.0 | 0.0 | 0.00 | 0.00 | 0.00 | 95 | 1017.4 |
| 20260502113041 | 10 | 339 | 0.0 | 0.0 | 0.00 | 0.00 | 0.00 | 95 | 1017.3 |
| 20260502112538 | 10 | 339 | 0.0 | 0.0 | 0.00 | 0.00 | 0.00 | 95 | 1017.4 |
| 20260502112035 | 10 | 339 | 0.0 | 0.0 | 0.00 | 0.00 | 0.00 | 95 | 1017.2 |
| 20260502111532 | 10 | 339 | 0.0 | 0.0 | 0.00 | 0.00 | 0.00 | 95 | 1017.1 |
| 20260502111030 | 10 | 339 | 0.0 | 0.0 | 0.00 | 0.00 | 0.00 | 95 | 1017.2 |
| 20260502110527 | 10 | 339 | 0.0 | 0.0 | 0.00 | 0.00 | 0.00 | 95 | 1017.0 |
| 20260502110025 | 10 | 345 | 0.0 | 0.0 | 0.00 | 0.00 | 0.00 | 95 | 1016.9 |
| 20260502105522 | 10 | 347 | 0.0 | 0.0 | 0.00 | 0.00 | 0.00 | 95 | 1017.0 |
| 20260502105019 | 10 | 339 | 0.0 | 0.0 | 0.00 | 0.00 | 0.00 | 95 | 1016.9 |
| 20260502104516 | 10 | 340 | 0.0 | 0.0 | 0.00 | 0.00 | 0.00 | 95 | 1016.6 |
| 20260502104014 | 10 | 336 | 0.0 | 0.0 | 0.00 | 0.00 | 0.00 | 95 | 1016.8 |
| 20260502103511 | 10 | 354 | 0.0 | 0.0 | 0.00 | 0.00 | 0.00 | 95 | 1016.8 |
| 20260502103009 | 10 | 359 | 0.0 | 0.0 | 0.00 | 0.00 | 0.00 | 95 | 1016.7 |
| 20260502102505 | 10 | 352 | 0.0 | 0.0 | 0.00 | 0.00 | 0.00 | 95 | 1016.6 |
| 20260502102003 | 10 | 350 | 0.0 | 0.0 | 0.00 | 0.00 | 0.00 | 95 | 1016.6 |
| 20260502101500 | 10 | 330 | 0.0 | 0.0 | 0.00 | 0.00 | 0.00 | 95 | 1016.6 |
| 20260502100959 | 10 | 342 | 0.0 | 0.0 | 0.00 | 0.00 | 0.00 | 95 | 1016.5 |
| 20260502100457 | 10 | 343 | 0.0 | 0.0 | 0.00 | 0.00 | 0.00 | 95 | 1016.4 |
| 20260502091431 | 10 | 347 | 0.0 | 0.0 | 0.00 | 0.00 | 0.00 | 95 | 1015.8 |
| 20260502090928 | 10 | 347 | 0.0 | 0.0 | 0.00 | 0.00 | 0.00 | 95 | 1015.5 |
| 20260502090425 | 10 | 331 | 0.0 | 0.0 | 0.00 | 0.00 | 0.00 | 95 | 1015.2 |
| 20260502071320 | 11 | 326 | 0.0 | 0.0 | 0.00 | 0.00 | 0.00 | 95 | 1015.5 |
| 20260502070818 | 11 | 11 | 0.0 | 0.0 | 0.00 | 0.00 | 0.00 | 95 | 1015.5 |
| 20260502070315 | 11 | 337 | 0.0 | 0.0 | 0.00 | 0.00 | 0.00 | 95 | 1015.6 |
| 20260502065814 | 11 | 333 | 0.0 | 0.0 | 0.00 | 0.00 | 0.00 | 95 | 1015.5 |
| 20260502065312 | 11 | 331 | 0.0 | 0.0 | 0.00 | 0.00 | 0.00 | 95 | 1015.3 |
| 20260502064810 | 11 | 330 | 0.0 | 0.0 | 0.00 | 0.00 | 0.00 | 95 | 1015.3 |
| 20260502064308 | 11 | 335 | 0.0 | 0.0 | 0.00 | 0.00 | 0.00 | 95 | 1015.3 |
| 20260502063804 | 11 | 289 | 0.0 | 0.0 | 0.00 | 0.00 | 0.00 | 95 | 1015.4 |
| 20260502063303 | 11 | 336 | 0.0 | 0.0 | 0.00 | 0.00 | 0.00 | 95 | 1015.2 |
| 20260502062759 | 11 | 335 | 0.0 | 0.0 | 0.00 | 0.00 | 0.00 | 95 | 1015.3 |
| 20260502062257 | 11 | 333 | 0.0 | 0.0 | 0.00 | 0.00 | 0.00 | 95 | 1015.5 |
| 20260502061755 | 11 | 0 | 0.0 | 0.0 | 0.00 | 0.00 | 0.00 | 95 | 1015.1 |
| 20260502061253 | 11 | 152 | 0.0 | 0.0 | 0.00 | 0.00 | 0.00 | 95 | 1015.3 |
| 20260502060753 | 11 | 330 | 0.0 | 0.0 | 0.00 | 0.00 | 0.00 | 95 | 1015.0 |
| 20260502060248 | 11 | 330 | 0.0 | 0.0 | 0.00 | 0.00 | 0.00 | 95 | 1015.2 |
| 20260502055747 | 11 | 356 | 0.0 | 0.0 | 0.00 | 0.00 | 0.00 | 95 | 1015.1 |
| 20260502055244 | 11 | 327 | 0.0 | 0.0 | 0.00 | 0.00 | 0.00 | 95 | 1015.3 |
| 20260502054743 | 11 | 353 | 0.0 | 0.0 | 0.00 | 0.00 | 0.00 | 95 | 1015.1 |
| 20260502054241 | 11 | 331 | 0.0 | 0.0 | 0.00 | 0.00 | 0.00 | 95 | 1015.1 |
| 20260502053738 | 11 | 323 | 0.0 | 0.0 | 0.00 | 0.00 | 0.00 | 95 | 1015.2 |
| 20260502053235 | 11 | 335 | 0.0 | 0.0 | 0.00 | 0.00 | 0.00 | 95 | 1015.3 |
| 20260502052733 | 11 | 331 | 0.0 | 0.0 | 0.00 | 0.00 | 0.00 | 95 | 1015.5 |
| 20260502052231 | 11 | 333 | 0.0 | 0.0 | 0.00 | 0.00 | 0.00 | 95 | 1015.1 |
| 20260502051728 | 11 | 314 | 0.0 | 0.0 | 0.00 | 0.00 | 0.00 | 95 | 1015.3 |
| 20260502051227 | 11 | 331 | 0.0 | 0.0 | 0.00 | 0.00 | 0.00 | 95 | 1015.4 |
| 20260502050723 | 11 | 353 | 0.0 | 0.0 | 0.00 | 0.00 | 0.00 | 95 | 1015.4 |
| 20260502050219 | 11 | 331 | 0.0 | 0.0 | 0.00 | 0.00 | 0.00 | 95 | 1015.3 |
| 20260502045716 | 11 | 264 | 0.0 | 0.0 | 0.00 | 8.18 | 8.18 | 95 | 1015.1 |
| 20260502045213 | 11 | 353 | 0.0 | 0.0 | 0.00 | 8.18 | 8.18 | 95 | 1015.0 |
| 20260502044710 | 11 | 341 | 0.0 | 0.0 | 0.00 | 8.18 | 8.18 | 95 | 1014.9 |
| 20260502044206 | 11 | 330 | 0.0 | 0.0 | 0.00 | 8.18 | 8.18 | 95 | 1015.1 |
| 20260502043704 | 12 | 334 | 0.0 | 0.0 | 0.00 | 8.18 | 8.18 | 95 | 1015.0 |
| 20260502043201 | 12 | 343 | 0.0 | 0.0 | 0.00 | 8.18 | 8.18 | 95 | 1015.0 |
| 20260502042700 | 11 | 335 | 0.0 | 0.0 | 0.00 | 8.18 | 8.18 | 95 | 1015.1 |
| 20260502042158 | 11 | 321 | 0.0 | 0.0 | 0.00 | 8.18 | 8.18 | 95 | 1015.1 |
| 20260502041655 | 12 | 334 | 0.0 | 0.0 | 0.00 | 8.18 | 8.18 | 95 | 1015.0 |
| 20260502041152 | 12 | 310 | 0.0 | 0.0 | 0.00 | 8.18 | 8.18 | 95 | 1015.0 |
| 20260502040649 | 12 | 332 | 0.0 | 0.0 | 0.00 | 8.18 | 8.18 | 95 | 1014.9 |
| 20260502040146 | 12 | 343 | 0.0 | 0.0 | 0.00 | 8.18 | 8.18 | 95 | 1015.0 |
| 20260502035642 | 12 | 328 | 0.0 | 0.0 | 0.00 | 8.18 | 8.18 | 95 | 1015.3 |
| 20260502035139 | 12 | 332 | 0.0 | 0.0 | 0.00 | 8.18 | 8.18 | 95 | 1015.1 |
| 20260502034637 | 12 | 328 | 0.0 | 0.0 | 0.00 | 8.18 | 8.18 | 95 | 1015.0 |
| 20260502034136 | 12 | 340 | 0.0 | 0.0 | 0.00 | 8.18 | 8.18 | 95 | 1015.2 |
| 20260502033633 | 12 | 206 | 0.0 | 0.0 | 0.00 | 8.18 | 8.18 | 95 | 1015.2 |
| 20260502033131 | 12 | 106 | 0.0 | 0.0 | 0.00 | 8.18 | 8.18 | 95 | 1015.0 |
| 20260502032626 | 12 | 349 | 0.0 | 0.0 | 0.00 | 8.18 | 8.18 | 95 | 1015.1 |
| 20260502032123 | 12 | 349 | 0.0 | 0.0 | 0.00 | 8.18 | 8.18 | 95 | 1015.0 |
| 20260502031621 | 12 | 336 | 0.0 | 0.0 | 0.00 | 8.18 | 8.18 | 95 | 1014.6 |
| 20260502031118 | 12 | 341 | 0.0 | 0.0 | 0.00 | 8.18 | 8.18 | 95 | 1014.7 |
| 20260502030617 | 12 | 341 | 0.0 | 0.0 | 0.00 | 8.18 | 8.18 | 95 | 1014.5 |
| 20260502030115 | 12 | 340 | 0.0 | 0.0 | 0.00 | 8.18 | 8.18 | 95 | 1014.3 |
| 20260502025612 | 12 | 331 | 0.0 | 0.0 | 0.00 | 8.18 | 8.18 | 95 | 1014.3 |
| 20260502025110 | 12 | 343 | 0.0 | 0.0 | 0.00 | 8.18 | 8.18 | 95 | 1014.1 |
| 20260502024608 | 12 | 315 | 0.0 | 0.0 | 0.00 | 8.18 | 8.18 | 95 | 1013.8 |
| 20260502024106 | 12 | 334 | 0.0 | 0.0 | 0.00 | 8.18 | 8.18 | 95 | 1013.4 |
| 20260502023603 | 12 | 340 | 0.0 | 0.0 | 0.00 | 8.18 | 8.18 | 95 | 1013.5 |
| 20260502023100 | 12 | 343 | 0.0 | 0.0 | 0.00 | 8.18 | 8.18 | 95 | 1013.7 |
| 20260502022556 | 12 | 332 | 0.0 | 0.0 | 0.00 | 8.18 | 8.18 | 95 | 1013.6 |
| 20260502022054 | 12 | 308 | 0.0 | 0.0 | 0.00 | 8.18 | 8.18 | 95 | 1013.7 |
| 20260502021551 | 12 | 319 | 0.0 | 0.0 | 0.18 | 8.18 | 8.18 | 95 | 1013.7 |
| 20260502021048 | 12 | 343 | 0.0 | 0.0 | 0.18 | 8.18 | 8.18 | 95 | 1013.7 |
| 20260502020546 | 12 | 336 | 0.0 | 0.0 | 0.18 | 8.18 | 8.18 | 95 | 1013.5 |
| 20260502020042 | 12 | 333 | 0.0 | 0.0 | 0.00 | 8.15 | 8.15 | 95 | 1013.7 |
| 20260502015540 | 12 | 317 | 0.0 | 0.0 | 0.00 | 8.15 | 8.15 | 95 | 1013.5 |
| 20260502015036 | 12 | 322 | 0.0 | 0.0 | 0.00 | 8.15 | 8.15 | 95 | 1013.3 |
| 20260502014533 | 12 | 352 | 0.0 | 0.0 | 0.00 | 8.15 | 8.15 | 95 | 1013.4 |
| 20260502014030 | 12 | 334 | 0.0 | 0.0 | 0.00 | 8.15 | 8.15 | 95 | 1012.9 |
| 20260502013526 | 12 | 353 | 0.0 | 0.0 | 0.00 | 8.15 | 8.15 | 95 | 1012.8 |
| 20260502013022 | 12 | 348 | 0.0 | 0.0 | 0.13 | 8.15 | 8.15 | 95 | 1012.9 |
| 20260502012520 | 12 | 339 | 0.0 | 0.0 | 0.13 | 8.15 | 8.15 | 95 | 1013.0 |
| 20260502012017 | 12 | 337 | 0.0 | 0.0 | 0.00 | 8.13 | 8.13 | 95 | 1013.2 |
| 20260502011514 | 13 | 337 | 0.0 | 0.0 | 0.00 | 8.13 | 8.13 | 95 | 1013.4 |
| 20260502011010 | 13 | 335 | 0.0 | 0.0 | 0.00 | 8.13 | 8.13 | 95 | 1013.2 |
| 20260502010508 | 13 | 350 | 0.0 | 0.0 | 0.00 | 8.13 | 8.13 | 95 | 1013.0 |
| 20260502010004 | 13 | 5 | 0.0 | 0.0 | 0.18 | 8.13 | 8.13 | 95 | 1012.5 |
| 20260502005502 | 13 | 335 | 0.0 | 0.0 | 0.30 | 8.13 | 8.13 | 95 | 1011.7 |
| 20260502004959 | 13 | 317 | 0.0 | 0.0 | 0.30 | 8.13 | 8.13 | 95 | 1011.8 |
| 20260502004454 | 13 | 328 | 0.0 | 0.0 | 0.00 | 8.08 | 8.08 | 95 | 1011.7 |
| 20260502003952 | 13 | 333 | 0.0 | 1.6 | 0.18 | 8.08 | 8.08 | 95 | 1012.2 |
| 20260502003449 | 13 | 340 | 0.0 | 0.0 | 0.18 | 8.08 | 8.08 | 95 | 1012.2 |
| 20260502002945 | 13 | 337 | 0.0 | 0.0 | 0.13 | 8.05 | 8.05 | 95 | 1012.5 |
| 20260502002443 | 14 | 329 | 0.0 | 0.0 | 0.30 | 8.05 | 8.05 | 95 | 1012.6 |
| 20260502001940 | 14 | 335 | 0.0 | 0.0 | 0.36 | 8.03 | 8.03 | 95 | 1012.2 |
| 20260502001437 | 13 | 344 | 0.0 | 0.0 | 0.18 | 8.00 | 8.00 | 95 | 1012.3 |
| 20260502000935 | 13 | 347 | 0.0 | 0.0 | 0.13 | 7.98 | 7.98 | 95 | 1012.1 |
| 20260502000434 | 14 | 346 | 0.0 | 0.0 | 0.30 | 7.98 | 7.98 | 95 | 1011.8 |
| 20260501235929 | 14 | 348 | 0.0 | 0.0 | 0.30 | 7.95 | 7.95 | 95 | 1011.3 |
| 20260501235425 | 14 | 338 | 0.0 | 0.0 | 0.43 | 7.92 | 7.92 | 95 | 1011.5 |
| 20260501234920 | 14 | 343 | 0.0 | 0.0 | 0.30 | 7.90 | 7.90 | 95 | 1012.1 |
| 20260501234418 | 14 | 330 | 0.0 | 0.0 | 0.18 | 7.85 | 7.85 | 95 | 1011.9 |
| 20260501233916 | 14 | 333 | 0.0 | 0.0 | 0.30 | 7.85 | 7.85 | 95 | 1011.5 |
| 20260501233413 | 13 | 336 | 0.0 | 0.0 | 0.30 | 7.82 | 7.82 | 95 | 1011.5 |
| 20260501232908 | 14 | 339 | 0.0 | 0.0 | 0.30 | 7.80 | 7.80 | 95 | 1011.4 |
| 20260501232406 | 13 | 335 | 0.0 | 0.0 | 0.30 | 7.77 | 7.77 | 95 | 1010.7 |
| 20260501231903 | 14 | 340 | 0.0 | 0.0 | 0.30 | 7.75 | 7.75 | 95 | 1010.7 |
| 20260501231401 | 14 | 18 | 0.0 | 0.0 | 0.30 | 7.72 | 7.72 | 95 | 1010.6 |
| 20260501230859 | 14 | 5 | 0.0 | 0.0 | 0.79 | 7.72 | 7.72 | 95 | 1010.5 |
| 20260501230358 | 14 | 331 | 0.0 | 0.0 | 1.19 | 7.67 | 7.67 | 95 | 1010.8 |
| 20260501225855 | 14 | 69 | 0.0 | 0.0 | 0.89 | 7.57 | 7.57 | 95 | 1011.0 |
| 20260501225353 | 14 | 1 | 0.0 | 0.0 | 0.30 | 7.47 | 7.47 | 95 | 1010.8 |
| 20260501224848 | 14 | 323 | 0.0 | 0.0 | 0.00 | 7.42 | 7.42 | 95 | 1009.5 |
| 20260501224346 | 14 | 319 | 0.0 | 0.0 | 0.00 | 7.42 | 7.42 | 95 | 1009.3 |
| 20260501223842 | 14 | 333 | 0.0 | 0.0 | 0.00 | 7.42 | 7.42 | 95 | 1009.5 |
| 20260501223338 | 14 | 185 | 0.0 | 0.0 | 0.00 | 7.42 | 7.42 | 95 | 1009.3 |
| 20260501222834 | 14 | 335 | 0.0 | 0.0 | 0.00 | 7.42 | 7.42 | 95 | 1008.9 |
| 20260501222332 | 14 | 338 | 0.0 | 0.0 | 0.00 | 7.42 | 7.42 | 95 | 1009.1 |
| 20260501221828 | 15 | 340 | 0.0 | 0.0 | 0.00 | 7.42 | 7.42 | 95 | 1009.5 |
| 20260501221326 | 15 | 341 | 0.0 | 0.0 | 0.00 | 7.42 | 7.42 | 95 | 1009.9 |
| 20260501220824 | 15 | 317 | 0.0 | 0.0 | 0.18 | 7.42 | 7.42 | 95 | 1010.1 |
| 20260501220321 | 15 | 359 | 0.0 | 0.0 | 0.36 | 7.42 | 7.42 | 95 | 1010.2 |
| 20260501215817 | 15 | 329 | 0.0 | 0.0 | 0.30 | 7.39 | 7.39 | 95 | 1010.6 |
| 20260501215313 | 15 | 331 | 0.0 | 0.0 | 0.43 | 7.37 | 7.37 | 95 | 1011.0 |
| 20260501214809 | 15 | 334 | 0.0 | 0.0 | 0.61 | 7.34 | 7.34 | 95 | 1010.9 |
| 20260501214304 | 15 | 31 | 0.0 | 0.0 | 0.79 | 7.29 | 7.29 | 95 | 1010.8 |
| 20260501213800 | 15 | 337 | 0.0 | 0.0 | 0.79 | 7.24 | 7.24 | 95 | 1010.7 |
| 20260501213257 | 15 | 343 | 0.0 | 0.0 | 0.61 | 7.16 | 7.16 | 95 | 1010.5 |
| 20260501212753 | 15 | 31 | 0.0 | 0.0 | 0.48 | 7.11 | 7.11 | 95 | 1010.5 |
| 20260501212249 | 15 | 339 | 0.0 | 0.0 | 0.30 | 7.06 | 7.06 | 95 | 1010.7 |
| 20260501211747 | 15 | 161 | 0.0 | 0.0 | 0.30 | 7.04 | 7.04 | 95 | 1010.6 |
| 20260501211244 | 15 | 338 | 0.0 | 0.0 | 0.18 | 7.01 | 7.01 | 95 | 1010.2 |
| 20260501210741 | 15 | 336 | 0.0 | 0.0 | 0.30 | 7.01 | 7.01 | 95 | 1009.7 |
| 20260501210237 | 15 | 300 | 0.0 | 0.0 | 0.30 | 6.99 | 6.99 | 95 | 1009.2 |
| 20260501205734 | 15 | 296 | 0.0 | 0.0 | 0.18 | 6.96 | 6.96 | 95 | 1008.7 |
| 20260501205231 | 15 | 337 | 0.0 | 0.0 | 0.18 | 6.96 | 6.96 | 95 | 1009.5 |
| 20260501204728 | 15 | 336 | 0.0 | 0.0 | 0.13 | 6.93 | 6.93 | 95 | 1009.6 |
| 20260501204225 | 15 | 338 | 0.0 | 0.0 | 0.30 | 6.93 | 6.93 | 95 | 1010.0 |
| 20260501203721 | 15 | 58 | 0.0 | 0.0 | 0.30 | 6.91 | 6.91 | 95 | 1010.1 |
| 20260501203219 | 15 | 333 | 0.0 | 0.0 | 0.30 | 6.88 | 6.88 | 95 | 1009.3 |
| 20260501202715 | 15 | 337 | 0.0 | 0.0 | 0.30 | 6.86 | 6.86 | 95 | 1008.9 |
| 20260501202212 | 15 | 54 | 3.2 | 12.9 | 0.30 | 6.83 | 6.83 | 95 | 1008.8 |
| 20260501201709 | 15 | 338 | 0.0 | 0.0 | 0.30 | 6.81 | 6.81 | 95 | 1008.8 |
| 20260501201206 | 15 | 337 | 0.0 | 0.0 | 0.13 | 6.78 | 6.78 | 95 | 1009.5 |
| 20260501200702 | 15 | 336 | 0.0 | 0.0 | 0.18 | 6.76 | 6.76 | 95 | 1009.8 |
| 20260501200200 | 15 | 352 | 0.0 | 0.0 | 0.18 | 6.76 | 6.76 | 95 | 1009.7 |
| 20260501195657 | 15 | 346 | 0.0 | 0.0 | 0.18 | 6.73 | 6.73 | 95 | 1010.3 |
| 20260501195153 | 15 | 342 | 0.0 | 0.0 | 0.30 | 6.73 | 6.73 | 95 | 1009.9 |
| 20260501194649 | 15 | 103 | 0.0 | 0.0 | 0.13 | 6.71 | 6.71 | 95 | 1009.7 |
| 20260501194144 | 15 | 328 | 0.0 | 0.0 | 0.00 | 6.68 | 6.68 | 95 | 1009.6 |
| 20260501193642 | 15 | 327 | 0.0 | 0.0 | 0.30 | 6.68 | 6.68 | 95 | 1009.5 |
| 20260501193140 | 15 | 275 | 0.0 | 0.0 | 0.48 | 6.68 | 6.68 | 95 | 1009.2 |
| 20260501192637 | 15 | 330 | 0.0 | 0.0 | 0.18 | 6.63 | 6.63 | 95 | 1009.2 |
| 20260501192134 | 15 | 333 | 0.0 | 0.0 | 0.13 | 6.60 | 6.60 | 95 | 1009.4 |
| 20260501191632 | 15 | 347 | 0.0 | 0.0 | 0.13 | 6.60 | 6.60 | 95 | 1009.3 |
| 20260501191129 | 15 | 329 | 0.0 | 0.0 | 0.00 | 6.58 | 6.58 | 95 | 1009.1 |
| 20260501190626 | 15 | 327 | 0.0 | 0.0 | 0.00 | 6.58 | 6.58 | 95 | 1008.8 |
| 20260501190125 | 15 | 328 | 0.0 | 0.0 | 0.00 | 6.58 | 6.58 | 95 | 1008.6 |
| 20260501185622 | 15 | 329 | 0.0 | 0.0 | 0.00 | 6.58 | 6.58 | 95 | 1008.5 |
| 20260501185118 | 15 | 332 | 0.0 | 0.0 | 0.00 | 6.58 | 6.58 | 95 | 1008.9 |
| 20260501184614 | 15 | 343 | 0.0 | 0.0 | 0.00 | 6.58 | 6.58 | 95 | 1009.2 |
| 20260501184109 | 15 | 340 | 0.0 | 0.0 | 0.00 | 6.58 | 6.58 | 95 | 1009.3 |
| 20260501183606 | 15 | 338 | 0.0 | 0.0 | 0.00 | 6.58 | 6.58 | 95 | 1008.5 |
| 20260501183103 | 15 | 325 | 0.0 | 0.0 | 0.00 | 6.58 | 6.58 | 95 | 1008.1 |
| 20260501182559 | 16 | 319 | 0.0 | 0.0 | 0.00 | 6.58 | 6.58 | 95 | 1008.2 |
| 20260501182056 | 15 | 322 | 0.0 | 0.0 | 0.18 | 6.58 | 6.58 | 95 | 1007.1 |
| 20260501181553 | 16 | 323 | 0.0 | 0.0 | 0.18 | 6.58 | 6.58 | 95 | 1007.1 |
| 20260501181050 | 16 | 325 | 0.0 | 0.0 | 0.00 | 6.55 | 6.55 | 95 | 1007.7 |
| 20260501180548 | 15 | 315 | 0.0 | 0.0 | 0.00 | 6.55 | 6.55 | 95 | 1007.1 |
| 20260501180044 | 16 | 331 | 0.0 | 0.0 | 0.13 | 6.55 | 6.55 | 95 | 1007.7 |
| 20260501175540 | 16 | 325 | 0.0 | 0.0 | 0.13 | 6.55 | 6.55 | 95 | 1008.2 |
| 20260501175037 | 16 | 342 | 0.0 | 0.0 | 0.00 | 6.53 | 6.53 | 95 | 1009.2 |
| 20260501174535 | 16 | 340 | 0.0 | 0.0 | 0.18 | 6.53 | 6.53 | 95 | 1009.3 |
| 20260501174032 | 16 | 342 | 0.0 | 0.0 | 0.18 | 6.53 | 6.53 | 95 | 1009.3 |
| 20260501173529 | 16 | 333 | 0.0 | 0.0 | 0.00 | 6.50 | 6.50 | 95 | 1009.7 |
| 20260501173026 | 16 | 336 | 0.0 | 0.0 | 0.00 | 6.50 | 6.50 | 95 | 1010.5 |
| 20260501172521 | 16 | 330 | 0.0 | 0.0 | 0.00 | 6.50 | 6.50 | 95 | 1010.5 |
| 20260501172017 | 16 | 355 | 0.0 | 0.0 | 0.13 | 6.50 | 6.50 | 95 | 1010.6 |
| 20260501171514 | 15 | 324 | 0.0 | 0.0 | 0.13 | 6.50 | 6.50 | 95 | 1010.3 |
| 20260501171010 | 15 | 315 | 0.0 | 0.0 | 0.00 | 6.48 | 6.48 | 95 | 1010.7 |
| 20260501170507 | 15 | 288 | 0.0 | 0.0 | 0.00 | 6.48 | 6.48 | 95 | 1010.2 |
| 20260501170004 | 15 | 333 | 0.0 | 0.0 | 0.00 | 6.48 | 6.48 | 95 | 1010.0 |
| 20260501165502 | 15 | 325 | 0.0 | 0.0 | 0.00 | 6.48 | 6.48 | 95 | 1010.2 |
| 20260501165000 | 15 | 308 | 0.0 | 0.0 | 0.00 | 6.48 | 6.48 | 95 | 1010.7 |
| 20260501164458 | 15 | 339 | 0.0 | 0.0 | 0.18 | 6.48 | 6.48 | 95 | 1010.9 |
| 20260501163953 | 15 | 328 | 0.0 | 0.0 | 0.18 | 6.48 | 6.48 | 95 | 1010.9 |
| 20260501163450 | 15 | 346 | 0.0 | 0.0 | 0.13 | 6.45 | 6.45 | 95 | 1011.0 |
| 20260501162946 | 16 | 317 | 0.0 | 0.0 | 0.30 | 6.45 | 6.45 | 95 | 1011.6 |
| 20260501162443 | 16 | 323 | 0.0 | 0.0 | 0.36 | 6.43 | 6.43 | 95 | 1011.8 |